Date String (YYYY-MM-DD hh:mm:ss) UTC,Instrument flags,Ambient pressure (hPa),Sample flow (lpm),Bypass flow (lpm),Sample temperature (°C),Ambient temperature (°C),ASC tube jacket temperature (°C),LED temperature (°C),Box temperature (°C),Sample RH (%),Span deviation,Mass concentration (μg/m³),Mass concentration (μg/m³),Mass concentration (μg/m³)
DateTimeUTC,F1_M11,P_M11,Q1_M11,Q2_M11,T1_M11,T2_M11,T3_M11,T4_M11,T5_M11,U1_M11,ZSPAN_M11,X0_M11,X2_M11,X1_M11
2021-12-25 21:00:00,,0818.0,5.02,0.00,24.4,23.6,00.0,33.3,26.1,07.4,0000.0,0000.98,0000.57,0000.44
2021-12-25 21:01:00,,0818.0,4.99,0.00,24.3,23.6,00.0,33.3,26.0,07.3,0000.0,0001.00,0000.58,0000.44
2021-12-25 21:02:00,,0818.0,5.01,0.00,24.3,23.5,00.0,33.3,26.0,07.3,0000.0,0000.94,0000.57,0000.44
2021-12-25 21:03:00,,0818.0,5.00,0.00,24.3,23.5,00.0,33.3,26.0,07.4,0000.0,0000.90,0000.57,0000.44
2021-12-25 21:04:00,,0818.0,4.99,0.00,24.3,23.6,00.0,33.3,26.0,07.4,0000.0,0000.90,0000.56,0000.43
2021-12-25 21:05:00,,0818.0,4.99,0.00,24.3,23.6,00.0,33.3,26.0,07.3,0000.0,0000.90,0000.55,0000.43
2021-12-25 21:06:00,,0818.0,5.00,0.00,24.3,23.6,00.0,33.3,26.0,07.2,0000.0,0000.85,0000.53,0000.43
2021-12-25 21:07:00,,0818.0,4.99,0.00,24.3,23.6,00.0,33.3,26.0,07.0,0000.0,0000.81,0000.52,0000.43
2021-12-25 21:08:00,,0818.0,4.99,0.00,24.3,23.6,00.0,33.3,26.0,07.0,0000.0,0000.93,0000.52,0000.42
2021-12-25 21:09:00,,0818.1,5.01,0.00,24.3,23.6,00.0,33.3,26.0,07.0,0000.0,0002.22,0000.51,0000.41
2021-12-25 21:10:00,,0818.0,4.99,0.00,24.3,23.6,00.0,33.3,26.0,07.1,0000.0,0002.25,0000.52,0000.41
2021-12-25 21:11:00,,0818.0,5.01,0.00,24.3,23.6,00.0,33.3,26.0,06.9,0000.0,0002.26,0000.52,0000.40
2021-12-25 21:12:00,,0818.0,5.00,0.00,24.3,23.5,00.0,33.3,26.0,06.8,0000.0,0002.28,0000.52,0000.40
2021-12-25 21:13:00,,0818.0,4.99,0.00,24.3,23.5,00.0,33.3,25.9,06.9,0000.0,0002.27,0000.52,0000.40
2021-12-25 21:14:00,,0818.0,5.01,0.00,24.3,23.5,00.0,33.3,25.9,07.0,0000.0,0002.25,0000.51,0000.40
2021-12-25 21:15:00,,0818.1,5.00,0.00,24.3,23.6,00.0,33.3,26.0,07.0,0000.0,0002.20,0000.49,0000.40
2021-12-25 21:16:00,,0818.0,5.02,0.00,24.3,23.6,00.0,33.3,25.9,06.9,0000.0,0002.18,0000.48,0000.40
2021-12-25 21:17:00,,0818.0,5.00,0.00,24.3,23.6,00.0,33.3,25.9,06.9,0000.0,0002.28,0000.48,0000.40
2021-12-25 21:18:00,,0818.0,5.00,0.00,24.3,23.5,00.0,33.3,25.9,06.9,0000.0,0002.45,0000.48,0000.40
2021-12-25 21:19:00,,0818.0,4.99,0.00,24.3,23.5,00.0,33.3,25.9,06.9,0000.0,0002.26,0000.49,0000.40
2021-12-25 21:20:00,,0818.0,5.01,0.00,24.3,23.5,00.0,33.3,25.9,07.0,0000.0,0001.07,0000.48,0000.39
2021-12-25 21:21:00,,0818.0,4.98,0.00,24.3,23.5,00.0,33.3,25.9,07.0,0000.0,0001.04,0000.47,0000.39
2021-12-25 21:22:00,,0818.0,5.00,0.00,24.3,23.5,00.0,33.3,25.9,06.9,0000.0,0001.05,0000.47,0000.39
2021-12-25 21:23:00,,0818.0,5.01,0.00,24.3,23.5,00.0,33.3,25.9,06.8,0000.0,0001.02,0000.47,0000.38
2021-12-25 21:24:00,,0818.0,5.00,0.00,24.3,23.4,00.0,33.3,25.9,06.8,0000.0,0001.02,0000.46,0000.38
2021-12-25 21:25:00,,0818.0,4.99,0.00,24.3,23.4,00.0,33.3,26.0,06.9,0000.0,0001.02,0000.46,0000.38
2021-12-25 21:26:00,,0818.0,5.02,0.00,24.3,23.5,00.0,33.3,25.9,06.9,0000.0,0001.08,0000.48,0000.38
2021-12-25 21:27:00,,0818.0,5.00,0.00,24.3,23.5,00.0,33.3,25.9,07.0,0000.0,0001.09,0000.49,0000.38
2021-12-25 21:28:00,,0818.1,5.00,0.00,24.3,23.5,00.0,33.3,25.9,06.8,0000.0,0000.93,0000.49,0000.37
2021-12-25 21:29:00,,0818.2,5.02,0.00,24.3,23.5,00.0,33.3,25.9,06.9,0000.0,0000.70,0000.48,0000.37
2021-12-25 21:30:00,,0818.2,4.99,0.00,24.2,23.5,00.0,33.3,25.9,07.0,0000.0,0000.90,0000.50,0000.37
2021-12-25 21:31:00,,0818.2,5.00,0.00,24.2,23.5,00.0,33.3,25.9,06.8,0000.0,0001.08,0000.51,0000.37
2021-12-25 21:32:00,,0818.1,5.00,0.00,24.2,23.5,00.0,33.3,25.9,06.8,0000.0,0001.20,0000.54,0000.36
2021-12-25 21:33:00,,0818.0,5.00,0.00,24.2,23.5,00.0,33.3,25.9,06.8,0000.0,0001.24,0000.55,0000.37
2021-12-25 21:34:00,,0818.1,5.00,0.00,24.2,23.5,00.0,33.3,25.9,06.8,0000.0,0001.26,0000.55,0000.37
2021-12-25 21:35:00,,0818.2,4.99,0.00,24.2,23.5,00.0,33.3,25.9,06.9,0000.0,0001.26,0000.55,0000.37
2021-12-25 21:36:00,,0818.0,5.00,0.00,24.2,23.5,00.0,33.3,25.9,07.0,0000.0,0001.24,0000.54,0000.37
2021-12-25 21:37:00,,0818.2,5.01,0.00,24.2,23.5,00.0,33.3,25.8,07.0,0000.0,0001.17,0000.51,0000.36
2021-12-25 21:38:00,,0818.2,5.01,0.00,24.2,23.4,00.0,33.2,25.8,07.0,0000.0,0001.15,0000.50,0000.35
2021-12-25 21:39:00,,0818.2,4.98,0.00,24.2,23.4,00.0,33.3,25.9,06.8,0000.0,0001.13,0000.49,0000.35
2021-12-25 21:40:00,,0818.2,5.01,0.00,24.2,23.4,00.0,33.3,25.9,06.8,0000.0,0001.12,0000.49,0000.35
2021-12-25 21:41:00,,0818.1,4.99,0.00,24.2,23.4,00.0,33.2,25.9,06.9,0000.0,0000.90,0000.45,0000.35
2021-12-25 21:42:00,,0818.2,5.01,0.00,24.2,23.4,00.0,33.2,25.9,06.8,0000.0,0000.64,0000.43,0000.35
2021-12-25 21:43:00,,0818.2,5.01,0.00,24.2,23.4,00.0,33.2,25.8,06.8,0000.0,0000.52,0000.39,0000.34
2021-12-25 21:44:00,,0818.2,4.99,0.00,24.2,23.4,00.0,33.2,25.8,06.9,0000.0,0000.43,0000.36,0000.34
2021-12-25 21:45:00,,0818.2,5.01,0.00,24.2,23.4,00.0,33.2,25.8,06.9,0000.0,0000.40,0000.35,0000.33
2021-12-25 21:46:00,,0818.0,5.00,0.00,24.2,23.4,00.0,33.2,25.7,06.8,0000.0,0000.42,0000.36,0000.34
2021-12-25 21:47:00,,0818.2,5.00,0.00,24.1,23.3,00.0,33.2,25.8,06.7,0000.0,0000.44,0000.37,0000.34
2021-12-25 21:48:00,,0818.2,5.01,0.00,24.1,23.3,00.0,33.2,25.7,06.7,0000.0,0000.44,0000.37,0000.34
2021-12-25 21:49:00,,0818.3,4.98,0.00,24.1,23.3,00.0,33.2,25.6,06.9,0000.0,0000.41,0000.36,0000.34
2021-12-25 21:50:00,,0818.2,5.01,0.00,24.1,23.3,00.0,33.2,25.7,06.9,0000.0,0000.44,0000.37,0000.34
2021-12-25 21:51:00,,0818.2,5.00,0.00,24.1,23.3,00.0,33.2,25.7,06.9,0000.0,0000.46,0000.38,0000.35
2021-12-25 21:52:00,,0818.2,4.99,0.00,24.1,23.3,00.0,33.2,25.7,06.9,0000.0,0000.48,0000.39,0000.35
2021-12-25 21:53:00,,0818.3,4.99,0.00,24.1,23.3,00.0,33.2,25.7,06.9,0000.0,0000.48,0000.40,0000.36
2021-12-25 21:54:00,,0818.2,5.01,0.00,24.1,23.3,00.0,33.2,25.6,06.9,0000.0,0000.59,0000.41,0000.36
2021-12-25 21:55:00,,0818.3,5.00,0.00,24.1,23.3,00.0,33.2,25.7,07.0,0000.0,0001.28,0000.43,0000.36
2021-12-25 21:56:00,,0818.4,5.00,0.00,24.1,23.3,00.0,33.1,25.6,06.9,0000.0,0001.30,0000.45,0000.36
2021-12-25 21:57:00,,0818.4,5.01,0.00,24.0,23.3,00.0,33.1,25.6,06.8,0000.0,0001.34,0000.46,0000.36
2021-12-25 21:58:00,,0818.4,4.99,0.00,24.0,23.3,00.0,33.1,25.6,06.6,0000.0,0001.39,0000.48,0000.37
2021-12-25 21:59:00,,0818.2,4.98,0.00,24.0,23.3,00.0,33.1,25.6,06.6,0000.0,0001.46,0000.48,0000.37
